{"data":{"norad_id":64770,"epoch":"2026-05-24T16:57:48.041856Z","epoch_age_seconds":96377,"freshness":"FRESH","line1":"1 64770U 25147R   26144.70680604  .00030199  00000+0  90179-3 0  9991","line2":"2 64770  53.1589 248.7157 0001024  79.5462 280.5656 15.34383588 50332","mean_motion":15.34383588,"eccentricity":0.0001024,"inclination_deg":53.1589,"raan_deg":248.7157,"arg_perigee_deg":79.5462,"mean_anomaly_deg":280.5656,"bstar":0.00090179,"rev_number":5033,"period_min":93.848761891215,"perigee_km":462.05151352887,"apogee_km":463.45252760028,"semimajor_km":6840.8890205646,"source":"CELESTRAK","updated_at":"2026-05-25T13:38:20.557309Z"}}